RH
60 56 66 77 94 76 79 55 50 52 54 59 60 59 63 68 74 84 78 76 70 72 71 73 71 75 77 75 71 75 77 80 82 83 69 67 70 75 71 68 72 77 77 60 52 43 39 44 36
63 62 77 79 90 89 61 55 54 58 53 55 56 57 52 56 60 75 73 79 76 67 76 81 75 75 77 75 76 79 81 81 82 70 63 67 66 64 68 68 65 71 66 49 48 42 38 32 26
67 62 66 85 89 90 59 60 49 45 52 56 52 61 53 62 62 66 72 80 81 75 73 76 73 76 75 79 82 83 86 82 74 67 59 62 64 68 59 48 51 51 49 50 38 30 29 27 27
67 72 68 83 89 82 56 54 49 46 54 50 53 51 56 52 59 64 67 74 83 83 78 78 75 75 78 77 84 84 80 75 67 67 62 63 60 50 46 52 52 54 54 42 34 28 26 26 28
69 71 96 87 81 63 59 52 58 57 52 58 54 56 59 57 53 59 70 70 76 80 82 81 81 79 80 82 86 85 80 73 72 71 66 62 58 56 61 62 63 66 50 38 27 25 25 24 30
75 84 84 90 92 59 57 54 50 54 52 59 62 54 57 62 59 59 66 67 74 77 81 80 83 85 85 86 88 85 81 78 75 79 75 71 67 64 64 72 69 66 40 28 24 23 24 27 36
78 89 86 92 94 86 69 60 55 52 50 56 57 56 57 58 61 62 63 62 66 76 81 84 85 85 87 88 85 86 80 81 78 78 79 77 71 68 68 70 62 52 33 25 24 27 29 35 43
65 84 92 76 84 95 87 68 64 52 51 54 61 55 56 56 57 59 57 57 61 71 81 87 85 86 90 90 90 86 83 83 85 82 81 80 77 72 57 64 54 36 28 25 28 29 35 41 50
70 90 90 80 77 82 83 72 66 62 47 62 56 58 54 57 52 61 57 61 65 71 89 84 83 82 86 89 91 93 92 91 91 85 80 79 78 68 53 63 42 30 26 28 26 31 38 45 53
70 83 94 71 72 72 80 82 71 53 52 52 58 57 53 56 57 55 64 58 61 71 77 79 83 80 84 85 87 85 88 91 89 84 74 71 68 60 55 57 35 27 27 28 31 37 45 52 66
71 82 67 55 66 74 81 81 71 59 50 55 54 55 54 56 59 59 59 61 61 61 66 98 79 80 83 83 86 89 86 85 80 66 72 73 60 49 55 51 31 26 29 28 34 39 46 65 66
59 58 62 54 59 72 76 85 80 74 56 69 52 56 54 57 59 59 65 61 61 72 66 66 76 89 92 82 83 85 82 77 67 58 65 67 54 49 48 47 32 34 36 34 40 44 44 53 81
78 60 56 55 63 72 72 78 89 74 77 65 52 56 57 57 57 61 65 66 66 62 72 70 67 74 90 84 79 73 71 65 54 53 56 53 59 63 61 47 43 39 37 48 45 43 41 42 51
69 60 55 59 60 64 68 78 81 65 68 59 52 55 58 55 56 61 67 66 61 66 68 79 66 65 71 81 76 77 73 77 58 62 63 81 63 59 59 54 42 45 41 46 41 37 43 47 49
51 62 70 68 59 62 67 77 69 89 66 65 49 54 61 63 60 59 63 63 64 73 72 68 65 66 64 60 76 78 66 75 70 59 58 54 60 52 58 51 43 53 45 44 35 37 43 49 47
58 68 77 74 61 58 67 80 78 73 63 69 68 53 75 60 54 54 61 63 66 71 70 64 69 65 58 55 65 73 78 70 76 64 52 69 59 70 80 92 53 54 43 36 38 41 48 48 49
66 82 78 80 74 60 62 78 75 80 79 80 77 54 64 53 57 54 58 60 67 76 67 63 74 65 58 54 60 78 80 75 76 66 54 57 49 75 79 66 45 57 44 48 46 44 47 42 46
80 77 73 87 79 69 63 67 66 79 88 75 72 67 63 59 63 55 58 58 62 67 72 72 80 71 64 57 58 61 66 67 68 70 80 52 58 68 96 64 46 53 85 63 38 46 47 42 42
58 58 65 88 73 68 66 66 67 68 72 74 73 63 51 63 68 76 63 58 62 63 71 77 74 75 67 62 60 75 60 58 59 61 70 62 53 47 47 54 47 47 42 50 43 45 45 37 35
54 52 58 64 53 59 69 73 68 67 67 67 59 59 59 57 64 69 63 64 61 59 64 68 70 74 70 66 62 68 66 59 55 68 59 53 49 45 44 60 52 46 41 42 34 46 67 41 39
50 50 53 48 43 50 69 87 76 75 72 71 64 65 69 69 74 73 82 70 66 64 75 62 66 72 68 69 68 67 69 72 56 53 53 51 45 45 39 39 41 38 35 40 33 30 40 38 37
32 38 43 39 35 53 53 73 88 89 74 67 59 60 71 70 73 72 71 70 64 59 85 64 62 71 71 70 67 65 65 66 63 63 53 57 48 47 46 35 36 34 33 48 71 28 37 42 61
27 38 43 42 33 36 49 56 73 72 66 63 60 59 65 69 62 63 65 71 82 65 70 72 57 65 73 69 71 69 63 62 67 57 62 57 53 50 46 42 41 40 37 38 36 38 31 33 53
21 33 37 38 32 29 33 50 68 64 67 90 74 56 55 60 65 68 66 74 80 82 82 58 61 61 69 68 69 73 63 64 63 57 58 56 52 52 46 43 39 41 38 44 38 35 37 28 26
12 23 28 36 35 33 50 53 61 50 55 63 64 83 68 66 67 62 65 66 66 67 62 53 65 64 62 64 68 68 68 65 75 65 61 64 49 52 52 46 43 42 41 45 42 41 38 39 37
14 19 26 38 56 58 52 48 58 48 45 61 62 52 55 50 54 63 59 63 61 65 72 87 66 59 55 58 61 63 66 65 66 64 58 68 60 55 59 55 53 46 42 54 45 40 42 38 39
18 17 23 31 45 61 64 50 43 48 42 46 50 46 39 46 55 53 52 55 62 67 72 75 66 53 56 55 57 60 62 64 62 60 59 63 58 59 73 57 49 46 47 46 52 52 46 44 44
27 23 24 28 35 58 64 60 52 51 48 50 50 42 46 39 36 43 56 56 52 61 68 85 92 64 56 58 55 57 58 62 62 63 59 64 62 62 67 67 59 63 50 54 54 47 49 55 51
24 33 28 28 31 41 46 60 48 44 46 47 43 43 35 36 34 37 41 49 51 50 62 82 86 87 63 57 61 57 53 55 59 63 64 64 62 63 64 58 77 69 59 51 55 51 50 53 58
23 27 29 28 31 31 30 43 43 43 46 45 44 40 36 37 40 37 37 41 51 51 53 65 75 73 74 71 64 65 62 56 54 58 70 67 66 60 49 52 67 64 61 52 64 59 56 56 50